Waarnemingen

Advertentie
Mijn weer
Saint-Brieuc, Frankrijk (7120): temperatuur & dauwpunt: 10.07.2018 16:00:00 - 16.07.2018 16:00:00 (CEST)Saint-Brieuc, Frankrijk (7120): temperatuur 5cm: 10.07.2018 16:00:00 - 16.07.2018 16:00:00 (CEST)Saint-Brieuc, Frankrijk (7120): temperatuur -20cm & temperatuur -100cm: 10.07.2018 16:00:00 - 16.07.2018 16:00:00 (CEST)Saint-Brieuc, Frankrijk (7120): windsnelheid & windstoten: 10.07.2018 16:00:00 - 16.07.2018 16:00:00 (CEST)Saint-Brieuc, Frankrijk (7120): windrichting: 10.07.2018 16:00:00 - 16.07.2018 16:00:00 (CEST)Saint-Brieuc, Frankrijk (7120): luchtdruk: 10.07.2018 16:00:00 - 16.07.2018 16:00:00 (CEST)Saint-Brieuc, Frankrijk (7120): zicht: 10.07.2018 16:00:00 - 16.07.2018 16:00:00 (CEST)Saint-Brieuc, Frankrijk (7120): Zonneschijnduur: 10.07.2018 16:00:00 - 16.07.2018 16:00:00 (CEST)Saint-Brieuc, Frankrijk (7120): neerslag: 10.07.2018 16:00:00 - 16.07.2018 16:00:00 (CEST)
Datum & Tijd tt [°C] td [°C] tt 5cm [°C] tt -20cm [°C] tt -100cm [°C] ff [km/u] ff [kn] fx [km/u] fx [kn] dd ppp [hPa] vv [km] sd [min] rr [mm]
16.07.2018 16:00:00 23,7 17,4 24,3 20,7 17,9 8 4 18 10 ZO 1015,0 20 32 0,0
16.07.2018 15:00:00 20,7 16,7 22,1 20,5 17,9 14 8 22 12 ONO 1015,5 20 2 0,0
16.07.2018 14:00:00 22,9 14,5 26,3 20,2 17,9 13 7 23 12 NO 1015,4 20 30 0,0
16.07.2018 13:00:00 22,3 14,4 28,2 19,9 17,9 17 9 25 14 NO 1015,4 20 31 0,0
16.07.2018 12:00:00 23,9 11,6 27,7 19,7 17,9 10 5 17 9 WNW 1015,2 20 51 0,0
16.07.2018 11:00:00 22,9 10,3 26,9 19,5 17,9 6 4 14 8 WNW 1015,2 20 60 0,0
16.07.2018 10:00:00 21,0 9,9 23,2 19,4 17,9 8 5 15 8 NW 1015,4 20 60 0,0
16.07.2018 09:00:00 19,1 12,1 21,4 19,5 17,9 8 5 13 7 WNW 1015,2 20 60 0,0
16.07.2018 08:00:00 17,2 11,0 13,7 19,6 17,9 3 2 9 5 W 1015,3 20 60 0,0
16.07.2018 07:00:00 15,5 10,3 10,8 19,7 17,9 5 3 8 4 W 1015,4 20 7 0,0
16.07.2018 06:00:00 14,6 11,0 11,0 19,9 17,9 5 3 8 4 WZW 1015,4 20 0 0,0
16.07.2018 05:00:00 13,4 10,7 11,2 20,1 17,9 5 3 7 4 W 1015,5 20 0 0,0
16.07.2018 04:00:00 14,8 11,2 11,1 20,3 17,9 6 3 7 4 ZZW 1015,5 20 0 0,0
16.07.2018 03:00:00 14,9 11,5 10,8 20,5 17,9 3 1 5 3 WZW 1015,8 20 0 0,0
16.07.2018 02:00:00 15,5 12,1 11,7 20,8 17,9 3 1 4 2 Z 1016,2 20 0 0,0
16.07.2018 01:00:00 16,1 12,3 11,9 21,0 17,9 0 0 5 3 N 1016,4 20 0 0,0
16.07.2018 00:00:00 16,3 12,6 12,5 21,2 17,9 3 2 5 3 W 1016,6 20 0 0,0
15.07.2018 23:00:00 16,3 12,8 12,8 21,4 17,9 2 1 4 2 WZW 1016,5 20 0 0,0
15.07.2018 22:00:00 18,0 13,1 15,6 21,6 17,9 0 0 9 5 N 1015,9 20 41 0,0
15.07.2018 21:00:00 20,0 12,7 20,9 21,6 17,9 7 4 13 7 NO 1015,7 20 60 0,0
15.07.2018 20:00:00 20,7 12,1 24,1 21,6 17,9 10 6 18 10 NO 1015,5 20 60 0,0
15.07.2018 19:00:00 21,3 12,7 26,0 21,5 17,9 13 7 23 12 NO 1016,0 20 60 0,0
15.07.2018 18:00:00 21,6 13,5 27,7 21,4 17,9 16 9 27 15 NNO 1016,0 20 60 0,0
15.07.2018 17:00:00 22,1 12,6 28,3 21,1 17,9 20 11 26 14 NNO 1016,2 20 60 0,0
15.07.2018 16:00:00 23,1 13,0 29,5 20,8 17,9 18 10 24 13 NO 1016,3 20 60 0,0
15.07.2018 15:00:00 23,3 11,7 29,5 20,4 17,9 16 9 22 12 NO 1016,5 20 60 0,0
15.07.2018 14:00:00 23,2 13,1 30,4 20,0 17,9 11 6 21 12 NO 1016,6 20 60 0,0
15.07.2018 13:00:00 23,0 13,7 28,7 19,7 17,8 10 5 17 9 NO 1016,9 20 60 0,0
15.07.2018 12:00:00 22,3 13,6 27,6 19,4 17,8 9 5 14 8 ONO 1017,1 20 60 0,0
15.07.2018 11:00:00 21,3 11,0 25,3 19,3 17,9 9 5 15 8 ONO 1017,3 20 60 0,0
15.07.2018 10:00:00 19,4 13,3 23,4 19,2 17,9 10 6 15 8 ONO 1017,5 20 60 0,0
15.07.2018 09:00:00 17,8 15,1 18,7 19,2 17,8 4 2 8 4 NO 1017,9 10 60 0,0
15.07.2018 08:00:00 14,5 14,2 11,2 19,3 17,8 3 1 7 4 W 1018,1 7 60 0,0
15.07.2018 07:00:00 12,3 12,1 9,4 19,5 17,8 4 2 7 4 W 1017,9 1,1 8 0,2
15.07.2018 06:00:00 12,1 11,9 10,7 19,7 17,8 6 4 8 4 W 1018,0 0,1 0 0,0
15.07.2018 05:00:00 12,3 11,7 8,2 19,9 17,8 4 2 6 3 W 1018,2 0,1 0 0,0
15.07.2018 04:00:00 13,1 12,5 8,8 20,1 17,8 0 0 7 4 N 1018,3 5 0 0,0
15.07.2018 03:00:00 12,5 11,2 9,1 20,4 17,8 6 3 7 4 W 1018,9 10 0 0,0
15.07.2018 02:00:00 13,4 11,6 9,4 20,6 17,9 2 1 4 2 W 1019,4 17 0 0,0
15.07.2018 01:00:00 13,4 11,5 9,4 20,9 17,9 2 1 3 2 NNO 1019,7 19 0 0,0
15.07.2018 00:00:00 14,3 11,8 10,4 21,1 17,8 0 0 4 2 N 1019,5 20 0 0,0
14.07.2018 23:00:00 15,2 12,0 11,6 21,3 17,8 4 2 9 5 N 1019,6 20 0 0,0
14.07.2018 22:00:00 17,1 12,6 15,8 21,4 17,8 7 4 13 7 N 1019,1 20 42 0,0
14.07.2018 21:00:00 19,2 12,7 20,8 21,5 17,8 9 5 17 9 N 1019,1 20 60 0,0
14.07.2018 20:00:00 20,1 13,1 24,6 21,5 17,9 11 6 21 11 N 1019,2 20 60 0,0
14.07.2018 19:00:00 20,7 12,7 25,6 21,4 17,8 15 8 30 16 NO 1019,3 20 60 0,0
14.07.2018 18:00:00 21,2 11,8 26,5 21,3 17,8 17 9 25 14 NO 1019,6 20 60 0,0
14.07.2018 17:00:00 21,8 12,4 27,9 21,0 17,8 16 9 25 14 NO 1019,6 20 60 0,0
14.07.2018 16:00:00 21,5 13,1 28,4 20,7 17,8 18 10 27 14 NNO 1020,0 20 60 0,0
14.07.2018 15:00:00 21,9 12,4 29,1 20,4 17,8 16 9 25 14 NNO 1020,3 20 60 0,0
14.07.2018 14:00:00 21,9 12,7 28,9 20,0 17,8 14 7 31 17 NNO 1020,6 20 60 0,0
14.07.2018 13:00:00 21,5 14,2 28,0 19,7 17,8 12 6 24 13 NNO 1020,6 20 60 0,0
14.07.2018 12:00:00 20,9 12,6 27,0 19,5 17,8 12 7 20 11 NO 1021,0 20 60 0,0
14.07.2018 11:00:00 20,5 12,7 25,3 19,3 17,8 10 5 18 10 NO 1021,1 20 60 0,0
14.07.2018 10:00:00 18,9 14,4 24,6 19,2 17,8 4 2 12 7 NO 1021,2 19 60 0,0
14.07.2018 09:00:00 16,7 15,1 18,5 19,2 17,8 5 3 9 5 NNW 1021,4 8 60 0,0
14.07.2018 08:00:00 14,8 13,7 12,9 19,4 17,8 3 2 7 4 W 1021,4 4,8 60 0,0
14.07.2018 07:00:00 12,6 12,1 9,2 19,6 17,8 5 3 6 3 W 1021,4 4,4 9 0,2
14.07.2018 06:00:00 13,2 12,7 10,1 19,8 17,8 3 2 9 5 WZW 1021,4 4,8 0 0,0
14.07.2018 05:00:00 12,3 11,7 10,1 20,0 17,8 6 3 9 5 W 1021,4 4,9 0 0,0
14.07.2018 04:00:00 12,5 11,7 10,4 20,2 17,8 9 5 12 6 W 1021,8 5 0 0,0
14.07.2018 03:00:00 12,5 11,6 10,5 20,4 17,8 10 5 11 6 WNW 1021,9 6 0 0,0
14.07.2018 02:00:00 12,6 11,3 10,8 20,6 17,8 8 5 10 5 WNW 1022,2 7 0 0,0
14.07.2018 01:00:00 13,6 12,2 11,6 20,9 17,8 8 4 11 6 W 1022,5 8 0 0,0
14.07.2018 00:00:00 14,1 12,8 12,6 21,0 17,8 9 5 13 7 NW 1022,7 10 0 0,0
13.07.2018 23:00:00 14,9 13,6 13,5 21,2 17,8 7 4 11 6 NNW 1022,3 8 0 0,0
13.07.2018 22:00:00 16,6 13,9 15,8 21,4 17,8 6 4 14 8 N 1021,6 14 43 0,0
13.07.2018 21:00:00 18,0 14,5 20,1 21,4 17,8 10 5 22 12 N 1021,1 15 60 0,0
13.07.2018 20:00:00 19,1 14,8 22,9 21,4 17,8 15 8 21 12 NO 1020,8 20 60 0,0
13.07.2018 19:00:00 19,5 14,5 24,5 21,3 17,8 14 8 22 12 NO 1021,0 20 60 0,0
13.07.2018 18:00:00 20,6 15,4 26,5 21,2 17,8 18 10 28 15 NO 1021,0 20 60 0,0
13.07.2018 17:00:00 20,9 14,8 27,2 20,9 17,8 16 9 23 12 NO 1021,3 20 60 0,0
13.07.2018 16:00:00 20,5 14,8 27,6 20,6 17,8 13 7 22 12 NO 1021,6 20 60 0,0
13.07.2018 15:00:00 20,3 14,2 28,0 20,2 17,8 16 9 23 13 NO 1021,7 20 60 0,0
13.07.2018 14:00:00 20,5 13,9 27,2 19,9 17,8 12 7 21 12 NO 1021,8 20 60 0,0
13.07.2018 13:00:00 19,5 14,1 27,2 19,6 17,8 11 6 21 11 NO 1021,9 20 60 0,0
13.07.2018 12:00:00 19,8 12,8 25,8 19,4 17,8 12 6 19 10 NNO 1021,6 20 60 0,0
13.07.2018 11:00:00 18,8 13,9 22,5 19,2 17,8 9 5 16 9 NNO 1021,7 20 57 0,0
13.07.2018 10:00:00 17,4 14,3 19,2 19,2 17,8 9 5 16 9 NO 1022,1 15 39 0,0
13.07.2018 09:00:00 16,5 14,5 16,2 19,2 17,8 10 5 15 8 NO 1022,0 12 11 0,0
13.07.2018 08:00:00 14,7 14,2 13,3 19,3 17,8 2 1 6 3 WNW 1021,6 5 9 0,0
13.07.2018 07:00:00 13,1 12,2 12,4 19,5 17,8 4 2 7 4 W 1021,7 6 8 0,0
13.07.2018 06:00:00 13,2 12,4 10,2 19,6 17,8 5 3 9 5 W 1021,7 9 0 0,2
13.07.2018 05:00:00 12,7 11,9 10,2 19,8 17,8 7 4 8 5 W 1021,7 8 0 0,0
13.07.2018 04:00:00 13,4 12,5 10,5 20,0 17,8 7 4 9 5 W 1021,9 10 0 0,0
13.07.2018 03:00:00 13,2 12,1 10,4 20,2 17,8 6 4 8 5 W 1021,8 13 0 0,0
13.07.2018 02:00:00 14,3 12,8 11,4 20,4 17,8 2 1 10 6 ZZO 1021,8 15 0 0,0
13.07.2018 01:00:00 14,1 12,5 10,5 20,6 17,8 7 4 10 5 N 1022,1 16 0 0,0
13.07.2018 00:00:00 14,7 12,6 12,4 20,8 17,8 5 3 7 4 NW 1021,9 20 0 0,0
12.07.2018 23:00:00 15,0 12,1 13,0 21,0 17,8 6 3 12 7 NNW 1021,7 20 0 0,0
12.07.2018 22:00:00 16,8 12,7 15,6 21,1 17,8 8 4 16 9 N 1021,3 20 43 0,0
12.07.2018 21:00:00 18,6 12,6 19,9 21,2 17,8 14 8 22 12 NNO 1021,1 20 60 0,0
12.07.2018 20:00:00 19,5 13,2 23,0 21,2 17,8 16 9 25 13 NO 1021,0 20 60 0,0
12.07.2018 19:00:00 19,9 13,1 24,7 21,1 17,8 18 10 26 14 NNO 1020,9 20 60 0,0
12.07.2018 18:00:00 20,9 11,5 25,9 20,9 17,8 18 10 28 15 NO 1020,8 20 60 0,0
12.07.2018 17:00:00 21,0 12,4 27,6 20,7 17,8 19 11 28 15 NO 1020,9 20 60 0,0
12.07.2018 16:00:00 21,0 11,9 27,1 20,4 17,8 18 10 30 16 NNO 1021,2 20 60 0,0
12.07.2018 15:00:00 20,8 12,0 26,5 20,1 17,8 20 11 31 17 ONO 1021,3 20 60 0,0
12.07.2018 14:00:00 20,7 12,9 26,5 19,8 17,8 19 10 33 18 NO 1021,3 20 60 0,0
12.07.2018 13:00:00 20,1 13,1 25,7 19,6 17,8 16 9 24 13 NNO 1021,4 20 60 0,0
12.07.2018 12:00:00 19,5 14,3 25,3 19,3 17,8 14 7 22 12 NNO 1021,2 20 60 0,0
12.07.2018 11:00:00 19,4 14,0 23,7 19,2 17,8 11 6 19 10 NO 1020,9 20 60 0,0
12.07.2018 10:00:00 18,5 13,6 19,6 19,1 17,8 9 5 18 10 ONO 1020,9 20 50 0,0
12.07.2018 09:00:00 16,6 14,6 18,1 19,2 17,8 5 3 8 5 NO 1021,0 15 50 0,0
12.07.2018 08:00:00 14,4 13,9 11,7 19,3 17,8 3 2 6 4 W 1020,7 8 36 0,0
12.07.2018 07:00:00 12,2 11,6 10,2 19,5 17,8 4 2 7 4 W 1020,8 7 3 0,0
12.07.2018 06:00:00 12,8 12,2 9,2 19,7 17,8 4 2 5 3 W 1020,7 2,9 0 0,0
12.07.2018 05:00:00 13,2 12,3 9,4 19,8 17,8 4 2 6 3 NO 1020,6 12 0 0,0
12.07.2018 04:00:00 13,9 13,1 10,4 20,0 17,8 0 0 8 4 N 1020,6 14 0 0,0
12.07.2018 03:00:00 13,8 13,3 10,3 20,2 17,7 0 0 9 5 N 1020,8 8 0 0,0
12.07.2018 02:00:00 13,5 12,7 10,1 20,4 17,8 6 3 8 5 NW 1021,1 9 0 0,0
12.07.2018 01:00:00 13,5 12,6 10,7 20,6 17,8 5 3 8 4 NW 1021,1 11 0 0,0
12.07.2018 00:00:00 14,1 12,8 12,2 20,8 17,8 5 3 9 5 NNW 1020,9 12 0 0,0
11.07.2018 23:00:00 14,9 12,9 12,2 21,0 17,8 4 2 9 5 NNW 1020,6 16 0 0,0
11.07.2018 22:00:00 16,3 12,8 15,6 21,1 17,8 9 5 23 13 NNO 1020,3 20 44 0,0
11.07.2018 21:00:00 17,8 12,5 19,0 21,2 17,8 15 8 24 13 NNO 1020,2 20 60 0,0
11.07.2018 20:00:00 18,6 12,3 22,3 21,3 17,8 18 10 26 14 NNO 1020,4 20 60 0,0
11.07.2018 19:00:00 19,5 12,3 24,7 21,2 17,8 19 10 29 16 NO 1020,3 20 60 0,0
11.07.2018 18:00:00 20,0 12,5 25,5 21,0 17,8 19 11 28 15 NNO 1020,5 20 60 0,0
11.07.2018 17:00:00 20,4 12,6 26,2 20,8 17,8 18 10 31 17 NO 1020,7 20 60 0,0
11.07.2018 16:00:00 20,1 12,6 26,0 20,6 17,7 18 10 30 16 NO 1020,9 20 60 0,0
11.07.2018 15:00:00 20,1 12,3 25,8 20,3 17,7 19 10 32 17 NO 1021,3 20 60 0,0
11.07.2018 14:00:00 20,1 13,5 25,9 20,0 17,7 23 12 34 18 NO 1021,4 20 60 0,0
11.07.2018 13:00:00 19,5 12,7 23,9 19,8 17,7 21 12 30 16 NO 1021,2 20 60 0,0
11.07.2018 12:00:00 19,3 13,5 23,5 19,6 17,7 13 7 26 14 NO 1021,4 20 58 0,0
11.07.2018 11:00:00 19,4 12,4 22,2 19,5 17,7 10 6 26 14 OZO 1021,3 20 60 0,0
11.07.2018 10:00:00 18,2 11,7 20,1 19,5 17,7 14 8 24 13 O 1021,4 20 60 0,0
11.07.2018 09:00:00 17,1 12,8 17,7 19,5 17,7 10 5 27 14 OZO 1021,7 20 54 0,0
11.07.2018 08:00:00 16,1 13,6 15,1 19,6 17,7 12 6 21 12 O 1021,3 20 60 0,0
11.07.2018 07:00:00 14,8 12,5 12,6 19,8 17,7 10 5 16 9 O 1021,2 20 12 0,0
11.07.2018 06:00:00 13,9 11,9 12,6 19,9 17,7 9 5 16 9 O 1021,3 20 0 0,0
11.07.2018 05:00:00 13,7 11,6 11,5 20,2 17,7 10 5 16 9 ONO 1021,4 20 0 0,0
11.07.2018 04:00:00 13,5 10,8 11,3 20,4 17,7 8 4 15 8 O 1021,6 20 0 0,0
11.07.2018 03:00:00 13,8 10,4 12,3 20,6 17,7 9 5 19 10 O 1021,6 20 0 0,0
11.07.2018 02:00:00 14,2 10,4 12,1 20,8 17,7 11 6 20 11 ONO 1021,8 20 0 0,0
11.07.2018 01:00:00 13,8 10,2 12,2 21,0 17,7 10 5 18 10 ONO 1022,0 20 0 0,0
11.07.2018 00:00:00 14,8 10,6 12,5 21,2 17,7 13 7 19 10 ONO 1022,0 20 0 0,0
10.07.2018 23:00:00 15,2 11,6 12,7 21,5 17,7 8 4 15 8 ONO 1022,1 20 0 0,0
10.07.2018 22:00:00 16,9 12,0 15,9 21,6 17,7 9 5 27 14 ONO 1021,7 20 45 0,0
10.07.2018 21:00:00 18,6 12,3 19,5 21,8 17,7 18 10 29 16 ONO 1021,5 20 60 0,0
10.07.2018 20:00:00 19,3 13,2 21,4 21,8 17,7 21 11 34 19 ONO 1021,4 20 60 0,0
10.07.2018 19:00:00 20,6 13,3 24,1 21,8 17,7 22 12 39 21 ONO 1021,2 20 60 0,0
10.07.2018 18:00:00 21,1 13,5 25,1 21,7 17,6 26 14 35 19 NO 1021,4 20 60 0,0
10.07.2018 17:00:00 21,8 14,4 26,8 21,5 17,6 23 12 33 18 ONO 1021,3 20 60 0,0
10.07.2018 16:00:00 22,1 15,4 27,8 21,3 17,6 22 12 34 18 NO 1021,4 20 60 0,0

tt = temperatuur
td = dauwpunt
tt 5cm = temperatuur 5cm
tt -20cm = temperatuur -20cm
tt -100cm = temperatuur -100cm
ff = windsnelheid
fx = windstoten
dd = windrichting
ppp = luchtdruk
vv = zicht
sd = Zonneschijnduur
rr = neerslag

Weerstations in de omgeving